| time (UTC) | temp C | wind direction | speed KPH | gust KPH | rain 1hr cm | rain 24hr cm | rain mn cm | humidity % | barometer mb |
| 20260901110335 | 18 | 303 | 0.0 | 0.0 | 0.00 | 0.00 | 0.00 | 99 | 1014.9 |
| 20260901105831 | 18 | 303 | 0.0 | 0.0 | 0.00 | 0.00 | 0.00 | 99 | 1014.7 |
| 20260901105326 | 18 | 303 | 0.0 | 0.0 | 0.00 | 0.00 | 0.00 | 99 | 1014.7 |
| 20260901104823 | 18 | 303 | 0.0 | 0.0 | 0.00 | 0.00 | 0.00 | 99 | 1014.6 |
| 20260901104323 | 18 | 304 | 0.0 | 0.0 | 0.00 | 0.00 | 0.00 | 99 | 1014.7 |
| 20260901103819 | 18 | 304 | 0.0 | 0.0 | 0.00 | 0.00 | 0.00 | 99 | 1014.8 |
| 20260901103313 | 18 | 303 | 0.0 | 0.0 | 0.00 | 0.00 | 0.00 | 99 | 1014.5 |
| 20260901102808 | 18 | 307 | 0.0 | 0.0 | 0.00 | 0.00 | 0.00 | 99 | 1014.6 |
| 20260901102308 | 18 | 293 | 0.0 | 0.0 | 0.00 | 0.00 | 0.00 | 99 | 1014.7 |
| 20260901101803 | 18 | 293 | 0.0 | 0.0 | 0.00 | 0.00 | 0.00 | 99 | 1014.5 |
| 20260901101303 | 18 | 293 | 0.0 | 0.0 | 0.00 | 0.00 | 0.00 | 99 | 1014.9 |
| 20260901100802 | 18 | 292 | 0.0 | 0.0 | 0.00 | 0.00 | 0.00 | 99 | 1014.7 |
| 20260901100257 | 18 | 290 | 0.0 | 0.0 | 0.00 | 0.00 | 0.00 | 99 | 1014.5 |
| 20260901095756 | 18 | 278 | 0.0 | 0.0 | 0.00 | 0.00 | 0.00 | 99 | 1014.7 |
| 20260901095253 | 18 | 278 | 0.0 | 0.0 | 0.00 | 0.00 | 0.00 | 99 | 1014.6 |
| 20260901094748 | 18 | 275 | 0.0 | 0.0 | 0.00 | 0.00 | 0.00 | 99 | 1014.5 |
| 20260901094243 | 18 | 275 | 0.0 | 0.0 | 0.00 | 0.00 | 0.00 | 99 | 1014.6 |
| 20260901093738 | 18 | 275 | 0.0 | 0.0 | 0.00 | 0.00 | 0.00 | 99 | 1014.6 |
| 20260901093237 | 18 | 275 | 0.0 | 0.0 | 0.00 | 0.00 | 0.00 | 99 | 1014.4 |
| 20260901092733 | 18 | 275 | 0.0 | 0.0 | 0.00 | 0.00 | 0.00 | 99 | 1014.5 |
| 20260901092229 | 18 | 275 | 0.0 | 0.0 | 0.00 | 0.00 | 0.00 | 99 | 1014.6 |
| 20260901091724 | 18 | 273 | 0.0 | 0.0 | 0.00 | 0.00 | 0.00 | 99 | 1014.7 |
| 20260901091220 | 18 | 284 | 0.0 | 0.0 | 0.00 | 0.00 | 0.00 | 99 | 1014.6 |
| 20260901090714 | 18 | 278 | 0.0 | 0.0 | 0.00 | 0.00 | 0.00 | 99 | 1014.6 |
| 20260901090209 | 18 | 287 | 0.0 | 0.0 | 0.00 | 0.00 | 0.00 | 99 | 1014.5 |
| 20260901085706 | 18 | 303 | 0.0 | 0.0 | 0.00 | 0.00 | 0.00 | 99 | 1014.4 |
| 20260901085200 | 18 | 272 | 0.0 | 0.0 | 0.00 | 0.00 | 0.00 | 99 | 1014.0 |
| 20260901084657 | 18 | 272 | 0.0 | 0.0 | 0.00 | 0.00 | 0.00 | 99 | 1014.1 |
| 20260901084153 | 18 | 272 | 0.0 | 0.0 | 0.00 | 0.00 | 0.00 | 99 | 1014.2 |
| 20260901083653 | 18 | 272 | 0.0 | 0.0 | 0.00 | 0.00 | 0.00 | 99 | 1014.1 |
| 20260901083153 | 18 | 271 | 0.0 | 0.0 | 0.00 | 0.00 | 0.00 | 99 | 1014.2 |
| 20260901082651 | 18 | 272 | 0.0 | 0.0 | 0.00 | 0.00 | 0.00 | 99 | 1014.2 |
| 20260901082147 | 18 | 272 | 0.0 | 0.0 | 0.00 | 0.00 | 0.00 | 99 | 1014.1 |
| 20260901081642 | 18 | 271 | 0.0 | 0.0 | 0.00 | 0.00 | 0.00 | 99 | 1014.3 |
| 20260901081143 | 18 | 284 | 0.0 | 0.0 | 0.00 | 0.00 | 0.00 | 99 | 1014.1 |
| 20260901080643 | 18 | 305 | 0.0 | 0.0 | 0.00 | 0.00 | 0.00 | 99 | 1014.1 |
| 20260901080141 | 18 | 289 | 0.0 | 0.0 | 0.00 | 0.00 | 0.00 | 99 | 1014.1 |
| 20260901075637 | 18 | 289 | 0.0 | 0.0 | 0.00 | 0.00 | 0.00 | 99 | 1014.2 |
| 20260901075137 | 18 | 302 | 0.0 | 0.0 | 0.00 | 0.00 | 0.00 | 99 | 1014.2 |
| 20260901074636 | 18 | 292 | 0.0 | 0.0 | 0.00 | 0.00 | 0.00 | 99 | 1014.2 |
| 20260901074131 | 18 | 288 | 0.0 | 1.6 | 0.00 | 0.00 | 0.00 | 99 | 1014.1 |
| 20260901073628 | 18 | 280 | 0.0 | 3.2 | 0.00 | 0.00 | 0.00 | 99 | 1014.2 |
| 20260901073123 | 18 | 273 | 0.0 | 0.0 | 0.00 | 0.00 | 0.00 | 99 | 1014.1 |
| 20260901072618 | 18 | 281 | 0.0 | 0.0 | 0.00 | 0.00 | 0.00 | 99 | 1014.0 |
| 20260901072113 | 18 | 285 | 0.0 | 0.0 | 0.00 | 0.00 | 0.00 | 99 | 1014.0 |
| 20260901071613 | 18 | 269 | 0.0 | 0.0 | 0.00 | 0.00 | 0.00 | 99 | 1014.3 |
| 20260901071112 | 18 | 277 | 0.0 | 1.6 | 0.00 | 0.00 | 0.00 | 99 | 1014.0 |
| 20260901070607 | 18 | 279 | 0.0 | 0.0 | 0.00 | 0.00 | 0.00 | 99 | 1014.0 |
| 20260901065556 | 18 | 275 | 0.0 | 0.0 | 0.00 | 0.00 | 0.00 | 99 | 1013.8 |
| 20260901065050 | 18 | 266 | 0.0 | 0.0 | 0.00 | 0.00 | 0.00 | 99 | 1013.7 |
| 20260901064548 | 18 | 279 | 0.0 | 0.0 | 0.00 | 0.00 | 0.00 | 99 | 1013.8 |
| 20260901064044 | 18 | 229 | 0.0 | 0.0 | 0.00 | 0.00 | 0.00 | 99 | 1013.6 |
| 20260901063540 | 18 | 228 | 0.0 | 0.0 | 0.00 | 0.00 | 0.00 | 99 | 1013.7 |
| 20260901063036 | 18 | 228 | 0.0 | 0.0 | 0.00 | 0.00 | 0.00 | 99 | 1013.8 |
| 20260901062532 | 18 | 228 | 0.0 | 0.0 | 0.00 | 0.00 | 0.00 | 99 | 1013.6 |
| 20260901062028 | 18 | 228 | 0.0 | 0.0 | 0.00 | 0.00 | 0.00 | 99 | 1013.4 |
| 20260901061524 | 18 | 228 | 0.0 | 0.0 | 0.00 | 0.00 | 0.00 | 99 | 1013.6 |
| 20260901061019 | 18 | 228 | 0.0 | 0.0 | 0.00 | 0.00 | 0.00 | 99 | 1013.5 |
| 20260901060518 | 18 | 228 | 0.0 | 0.0 | 0.00 | 0.00 | 0.00 | 99 | 1013.6 |
| 20260901060014 | 18 | 228 | 0.0 | 0.0 | 0.00 | 0.00 | 0.00 | 99 | 1013.6 |
| 20260901055509 | 18 | 228 | 0.0 | 0.0 | 0.00 | 0.00 | 0.00 | 99 | 1013.7 |
| 20260901055006 | 18 | 228 | 0.0 | 0.0 | 0.00 | 0.00 | 0.00 | 99 | 1013.7 |
| 20260901054503 | 18 | 228 | 0.0 | 0.0 | 0.00 | 0.00 | 0.00 | 99 | 1013.6 |
| 20260901053959 | 18 | 228 | 0.0 | 0.0 | 0.00 | 0.00 | 0.00 | 99 | 1013.8 |
| 20260901053454 | 18 | 228 | 0.0 | 0.0 | 0.00 | 0.00 | 0.00 | 99 | 1013.7 |
| 20260901052949 | 19 | 228 | 0.0 | 0.0 | 0.00 | 0.00 | 0.00 | 99 | 1014.0 |
| 20260901052445 | 19 | 229 | 0.0 | 0.0 | 0.00 | 0.00 | 0.00 | 99 | 1013.8 |
| 20260901051944 | 18 | 249 | 0.0 | 0.0 | 0.00 | 0.00 | 0.00 | 99 | 1014.0 |
| 20260901051440 | 19 | 241 | 0.0 | 0.0 | 0.00 | 0.00 | 0.00 | 99 | 1014.0 |
| 20260901050939 | 19 | 197 | 0.0 | 0.0 | 0.00 | 0.00 | 0.00 | 99 | 1013.7 |
| 20260901050435 | 19 | 174 | 0.0 | 0.0 | 0.00 | 0.00 | 0.00 | 99 | 1013.8 |
| 20260901045934 | 19 | 83 | 0.0 | 0.0 | 0.00 | 0.00 | 0.00 | 99 | 1013.5 |
| 20260901045430 | 19 | 69 | 0.0 | 0.0 | 0.00 | 0.00 | 0.00 | 99 | 1013.7 |
| 20260901044924 | 19 | 84 | 6.4 | 6.4 | 0.00 | 0.00 | 0.00 | 99 | 1013.7 |
| 20260901044420 | 19 | 58 | 3.2 | 4.8 | 0.00 | 0.00 | 0.00 | 99 | 1013.5 |
| 20260901043917 | 19 | 75 | 4.8 | 6.4 | 0.00 | 0.00 | 0.00 | 99 | 1013.6 |
| 20260901043413 | 19 | 75 | 0.0 | 0.0 | 0.00 | 0.00 | 0.00 | 99 | 1013.7 |
| 20260901042912 | 19 | 329 | 0.0 | 0.0 | 0.00 | 0.00 | 0.00 | 99 | 1013.8 |
| 20260901042407 | 19 | 17 | 0.0 | 0.0 | 0.00 | 0.00 | 0.00 | 99 | 1013.7 |
| 20260901041903 | 19 | 81 | 0.0 | 0.0 | 0.00 | 0.00 | 0.00 | 99 | 1013.6 |
| 20260901041403 | 19 | 162 | 0.0 | 0.0 | 0.00 | 0.00 | 0.00 | 99 | 1013.8 |
| 20260901040902 | 19 | 161 | 0.0 | 0.0 | 0.00 | 0.00 | 0.00 | 99 | 1013.8 |
| 20260901040402 | 19 | 160 | 0.0 | 0.0 | 0.00 | 0.00 | 0.00 | 99 | 1013.9 |
| 20260901035901 | 19 | 112 | 0.0 | 0.0 | 0.00 | 0.00 | 0.00 | 99 | 1013.8 |
| 20260901035400 | 19 | 197 | 0.0 | 0.0 | 0.00 | 0.00 | 0.00 | 99 | 1014.1 |
| 20260901034859 | 19 | 331 | 0.0 | 0.0 | 0.00 | 0.00 | 0.00 | 99 | 1014.1 |
| 20260901034354 | 19 | 331 | 0.0 | 0.0 | 0.00 | 0.00 | 0.00 | 99 | 1014.1 |
| 20260901033849 | 19 | 331 | 0.0 | 0.0 | 0.00 | 0.00 | 0.00 | 99 | 1014.1 |
| 20260901033348 | 19 | 331 | 0.0 | 0.0 | 0.00 | 0.00 | 0.00 | 99 | 1014.2 |
| 20260901032847 | 19 | 67 | 0.0 | 0.0 | 0.00 | 0.00 | 0.00 | 99 | 1014.1 |
| 20260901032346 | 19 | 320 | 0.0 | 0.0 | 0.00 | 0.00 | 0.00 | 99 | 1014.3 |
| 20260901031842 | 19 | 320 | 0.0 | 0.0 | 0.00 | 0.00 | 0.00 | 99 | 1014.2 |
| 20260901031337 | 19 | 111 | 0.0 | 0.0 | 0.00 | 0.00 | 0.00 | 99 | 1014.2 |
| 20260901030837 | 19 | 317 | 0.0 | 0.0 | 0.00 | 0.00 | 0.00 | 99 | 1014.3 |
| 20260901030332 | 19 | 335 | 0.0 | 0.0 | 0.00 | 0.00 | 0.00 | 99 | 1014.1 |
| 20260901025831 | 19 | 75 | 0.0 | 0.0 | 0.00 | 0.00 | 0.00 | 99 | 1014.3 |
| 20260901025326 | 19 | 74 | 3.2 | 3.2 | 0.00 | 0.00 | 0.00 | 99 | 1014.2 |
| 20260901024821 | 19 | 54 | 3.2 | 3.2 | 0.00 | 0.00 | 0.00 | 99 | 1014.0 |
| 20260901024320 | 19 | 80 | 8.0 | 11.3 | 0.00 | 0.00 | 0.00 | 99 | 1013.9 |
| 20260901023819 | 19 | 102 | 3.2 | 6.4 | 0.00 | 0.00 | 0.00 | 99 | 1013.9 |
| 20260901023314 | 19 | 86 | 4.8 | 6.4 | 0.00 | 0.00 | 0.00 | 99 | 1014.0 |
| 20260901022809 | 19 | 101 | 3.2 | 11.3 | 0.00 | 0.00 | 0.00 | 99 | 1013.9 |
| 20260901022306 | 19 | 99 | 8.0 | 11.3 | 0.00 | 0.00 | 0.00 | 99 | 1013.8 |
| 20260901021759 | 19 | 107 | 8.0 | 11.3 | 0.00 | 0.00 | 0.00 | 99 | 1013.8 |
| 20260901021255 | 19 | 68 | 6.4 | 11.3 | 0.00 | 0.00 | 0.00 | 99 | 1013.7 |
| 20260901020750 | 19 | 100 | 9.7 | 12.9 | 0.00 | 0.00 | 0.00 | 99 | 1013.9 |
| 20260901020245 | 19 | 78 | 9.7 | 12.9 | 0.00 | 0.00 | 0.00 | 99 | 1014.0 |
| 20260901015740 | 19 | 66 | 4.8 | 9.7 | 0.00 | 0.00 | 0.00 | 99 | 1014.1 |
| 20260901015237 | 19 | 57 | 3.2 | 9.7 | 0.00 | 0.00 | 0.00 | 99 | 1014.0 |
| 20260901014736 | 19 | 36 | 4.8 | 6.4 | 0.00 | 0.00 | 0.00 | 99 | 1014.3 |
| 20260901014232 | 19 | 22 | 4.8 | 6.4 | 0.00 | 0.00 | 0.00 | 99 | 1014.3 |
| 20260901013727 | 19 | 92 | 3.2 | 6.4 | 0.00 | 0.00 | 0.00 | 99 | 1014.3 |
| 20260901013223 | 19 | 68 | 4.8 | 6.4 | 0.00 | 0.00 | 0.00 | 99 | 1014.3 |
| 20260901012718 | 19 | 78 | 9.7 | 11.3 | 0.00 | 0.00 | 0.00 | 99 | 1014.2 |
| 20260901012218 | 19 | 46 | 1.6 | 9.7 | 0.00 | 0.00 | 0.00 | 99 | 1014.2 |
| 20260901011714 | 19 | 51 | 4.8 | 11.3 | 0.00 | 0.00 | 0.00 | 99 | 1014.1 |
| 20260901011214 | 19 | 68 | 6.4 | 6.4 | 0.00 | 0.00 | 0.00 | 99 | 1014.0 |
| 20260901010708 | 19 | 26 | 6.4 | 9.7 | 0.00 | 0.00 | 0.00 | 99 | 1014.3 |
| 20260901010203 | 19 | 82 | 9.7 | 11.3 | 0.00 | 0.00 | 0.00 | 99 | 1014.2 |
| 20260901005701 | 19 | 74 | 4.8 | 6.4 | 0.00 | 0.00 | 0.00 | 99 | 1014.2 |
| 20260901005157 | 19 | 86 | 6.4 | 9.7 | 0.00 | 0.00 | 0.00 | 99 | 1014.1 |
| 20260901004657 | 19 | 65 | 4.8 | 6.4 | 0.00 | 0.00 | 0.00 | 99 | 1013.9 |
| 20260901004152 | 19 | 53 | 4.8 | 9.7 | 0.00 | 0.00 | 0.00 | 99 | 1013.8 |
| 20260901003646 | 19 | 61 | 9.7 | 12.9 | 0.00 | 0.00 | 0.00 | 99 | 1013.8 |
| 20260901003146 | 19 | 88 | 8.0 | 11.3 | 0.00 | 0.00 | 0.00 | 99 | 1013.7 |
| 20260901002639 | 20 | 71 | 6.4 | 14.5 | 0.00 | 0.00 | 0.00 | 99 | 1013.6 |
| 20260901002134 | 20 | 97 | 4.8 | 14.5 | 0.00 | 0.00 | 0.00 | 99 | 1013.6 |
| 20260901001629 | 20 | 104 | 8.0 | 12.9 | 0.00 | 0.00 | 0.00 | 99 | 1013.5 |
| 20260901001124 | 20 | 46 | 6.4 | 14.5 | 0.00 | 0.00 | 0.00 | 99 | 1013.5 |
| 20260901000620 | 20 | 66 | 6.4 | 11.3 | 0.00 | 0.00 | 0.00 | 99 | 1013.7 |
| 20260901000115 | 20 | 78 | 4.8 | 9.7 | 0.00 | 0.00 | 0.00 | 99 | 1013.9 |
| 20260831235608 | 20 | 74 | 6.4 | 9.7 | 0.00 | 0.00 | 0.00 | 99 | 1013.9 |
| 20260831235104 | 20 | 105 | 6.4 | 9.7 | 0.00 | 0.00 | 0.00 | 99 | 1013.8 |
| 20260831234558 | 20 | 84 | 14.5 | 17.7 | 0.00 | 0.00 | 0.00 | 99 | 1013.7 |
| 20260831234054 | 20 | 104 | 12.9 | 14.5 | 0.00 | 0.00 | 0.00 | 99 | 1013.5 |
| 20260831233548 | 20 | 83 | 11.3 | 16.1 | 0.00 | 0.00 | 0.00 | 99 | 1013.5 |
| 20260831233044 | 20 | 43 | 11.3 | 16.1 | 0.00 | 0.00 | 0.00 | 99 | 1013.4 |
| 20260831232539 | 20 | 89 | 14.5 | 17.7 | 0.00 | 0.00 | 0.00 | 99 | 1013.5 |
| 20260831232035 | 20 | 95 | 12.9 | 20.9 | 0.00 | 0.00 | 0.00 | 99 | 1013.6 |
| 20260831231532 | 20 | 93 | 9.7 | 16.1 | 0.00 | 0.00 | 0.00 | 99 | 1013.5 |
| 20260831231027 | 20 | 67 | 6.4 | 14.5 | 0.00 | 0.00 | 0.00 | 99 | 1013.5 |
| 20260831230523 | 20 | 75 | 11.3 | 14.5 | 0.00 | 0.00 | 0.00 | 99 | 1013.8 |
| 20260831230023 | 20 | 67 | 14.5 | 14.5 | 0.00 | 0.00 | 0.00 | 99 | 1013.7 |
| 20260831225518 | 20 | 74 | 12.9 | 16.1 | 0.00 | 0.00 | 0.00 | 99 | 1013.8 |
| 20260831225018 | 20 | 54 | 17.7 | 17.7 | 0.00 | 0.00 | 0.00 | 99 | 1013.7 |
| 20260831224513 | 20 | 71 | 11.3 | 14.5 | 0.00 | 0.00 | 0.00 | 99 | 1013.9 |
| 20260831224008 | 20 | 60 | 8.0 | 14.5 | 0.00 | 0.00 | 0.00 | 99 | 1014.0 |
| 20260831223503 | 20 | 77 | 6.4 | 11.3 | 0.00 | 0.00 | 0.00 | 99 | 1014.0 |
| 20260831223000 | 20 | 64 | 9.7 | 12.9 | 0.00 | 0.00 | 0.00 | 99 | 1013.9 |
| 20260831222456 | 20 | 50 | 4.8 | 17.7 | 0.00 | 0.00 | 0.00 | 99 | 1013.9 |
| 20260831221954 | 20 | 63 | 9.7 | 16.1 | 0.00 | 0.00 | 0.00 | 99 | 1014.0 |
| 20260831221451 | 20 | 70 | 6.4 | 12.9 | 0.00 | 0.00 | 0.00 | 99 | 1014.1 |
| 20260831220946 | 20 | 43 | 11.3 | 14.5 | 0.00 | 0.00 | 0.00 | 99 | 1014.0 |
| 20260831220441 | 20 | 71 | 12.9 | 16.1 | 0.00 | 0.00 | 0.00 | 99 | 1013.8 |
| 20260831215936 | 20 | 52 | 8.0 | 16.1 | 0.00 | 0.00 | 0.00 | 99 | 1013.9 |
| 20260831215432 | 20 | 106 | 11.3 | 16.1 | 0.00 | 0.00 | 0.00 | 99 | 1013.9 |
| 20260831214928 | 21 | 60 | 9.7 | 14.5 | 0.00 | 0.00 | 0.00 | 99 | 1014.0 |
| 20260831214425 | 21 | 57 | 9.7 | 14.5 | 0.00 | 0.00 | 0.00 | 99 | 1014.0 |
| 20260831213921 | 21 | 67 | 12.9 | 14.5 | 0.00 | 0.00 | 0.00 | 98 | 1013.9 |
| 20260831213417 | 21 | 74 | 14.5 | 17.7 | 0.00 | 0.00 | 0.00 | 98 | 1014.0 |
| 20260831212917 | 21 | 79 | 8.0 | 17.7 | 0.00 | 0.00 | 0.00 | 98 | 1013.9 |
| 20260831212414 | 21 | 82 | 8.0 | 14.5 | 0.00 | 0.00 | 0.00 | 97 | 1013.8 |
| 20260831211913 | 21 | 49 | 6.4 | 14.5 | 0.00 | 0.00 | 0.00 | 98 | 1013.7 |
| 20260831211408 | 21 | 82 | 6.4 | 12.9 | 0.00 | 0.00 | 0.00 | 98 | 1013.7 |
| 20260831210908 | 21 | 54 | 8.0 | 12.9 | 0.00 | 0.00 | 0.00 | 98 | 1013.7 |
| 20260831210403 | 21 | 59 | 9.7 | 12.9 | 0.00 | 0.00 | 0.00 | 98 | 1013.7 |
| 20260831205859 | 21 | 77 | 6.4 | 12.9 | 0.00 | 0.00 | 0.00 | 98 | 1013.8 |
| 20260831205354 | 21 | 56 | 6.4 | 12.9 | 0.00 | 0.00 | 0.00 | 98 | 1013.7 |
| 20260831204849 | 21 | 55 | 6.4 | 16.1 | 0.00 | 0.00 | 0.00 | 98 | 1013.8 |
| 20260831204348 | 21 | 66 | 14.5 | 16.1 | 0.00 | 0.00 | 0.00 | 98 | 1013.7 |
| 20260831203848 | 21 | 48 | 14.5 | 16.1 | 0.00 | 0.00 | 0.00 | 97 | 1013.8 |
| 20260831203343 | 21 | 55 | 9.7 | 12.9 | 0.00 | 0.00 | 0.00 | 97 | 1013.8 |
| 20260831202841 | 21 | 52 | 9.7 | 11.3 | 0.00 | 0.00 | 0.00 | 98 | 1014.1 |
| 20260831202336 | 21 | 39 | 4.8 | 12.9 | 0.00 | 0.00 | 0.00 | 98 | 1014.0 |
| 20260831201836 | 21 | 58 | 9.7 | 12.9 | 0.00 | 0.00 | 0.00 | 98 | 1014.0 |
| 20260831201334 | 21 | 60 | 6.4 | 11.3 | 0.00 | 0.00 | 0.00 | 97 | 1013.9 |
| 20260831200831 | 21 | 45 | 6.4 | 14.5 | 0.00 | 0.00 | 0.00 | 98 | 1013.9 |
| 20260831200325 | 21 | 60 | 8.0 | 17.7 | 0.00 | 0.00 | 0.00 | 97 | 1014.0 |
| 20260831195821 | 22 | 77 | 9.7 | 16.1 | 0.00 | 0.00 | 0.00 | 97 | 1014.0 |
| 20260831195316 | 21 | 75 | 6.4 | 12.9 | 0.00 | 0.00 | 0.00 | 98 | 1014.2 |
| 20260831194812 | 21 | 77 | 8.0 | 16.1 | 0.00 | 0.00 | 0.00 | 98 | 1014.3 |
| 20260831194307 | 21 | 56 | 8.0 | 12.9 | 0.00 | 0.00 | 0.00 | 98 | 1014.3 |
| 20260831193806 | 21 | 74 | 9.7 | 14.5 | 0.00 | 0.00 | 0.00 | 97 | 1014.4 |
| 20260831193301 | 21 | 102 | 9.7 | 12.9 | 0.00 | 0.00 | 0.00 | 97 | 1014.2 |
| 20260831192756 | 21 | 95 | 11.3 | 20.9 | 0.00 | 0.00 | 0.00 | 97 | 1014.4 |
| 20260831192251 | 22 | 69 | 14.5 | 20.9 | 0.00 | 0.00 | 0.00 | 97 | 1014.3 |
| 20260831191747 | 21 | 86 | 11.3 | 16.1 | 0.00 | 0.00 | 0.00 | 97 | 1014.4 |
| 20260831191243 | 21 | 89 | 9.7 | 14.5 | 0.00 | 0.00 | 0.00 | 98 | 1014.5 |
| 20260831190739 | 21 | 46 | 6.4 | 16.1 | 0.00 | 0.00 | 0.00 | 98 | 1014.5 |
| 20260831190239 | 21 | 89 | 14.5 | 16.1 | 0.00 | 0.00 | 0.00 | 97 | 1014.6 |
| 20260831185738 | 21 | 69 | 16.1 | 17.7 | 0.00 | 0.00 | 0.00 | 97 | 1014.4 |
| 20260831185235 | 21 | 91 | 14.5 | 22.5 | 0.00 | 0.00 | 0.00 | 98 | 1014.5 |
| 20260831184733 | 21 | 76 | 16.1 | 20.9 | 0.00 | 0.00 | 0.00 | 98 | 1014.5 |
| 20260831184229 | 21 | 82 | 14.5 | 17.7 | 0.00 | 0.00 | 0.00 | 97 | 1014.6 |
| 20260831183724 | 21 | 83 | 14.5 | 20.9 | 0.00 | 0.00 | 0.00 | 98 | 1014.6 |
| 20260831183223 | 21 | 86 | 16.1 | 17.7 | 0.00 | 0.00 | 0.00 | 98 | 1014.5 |
| 20260831182722 | 21 | 76 | 16.1 | 20.9 | 0.00 | 0.00 | 0.00 | 97 | 1014.7 |
| 20260831182218 | 21 | 94 | 9.7 | 12.9 | 0.00 | 0.00 | 0.00 | 99 | 1015.0 |
| 20260831181718 | 21 | 98 | 11.3 | 12.9 | 0.00 | 0.00 | 0.00 | 98 | 1015.0 |
| 20260831181214 | 21 | 71 | 8.0 | 16.1 | 0.00 | 0.00 | 0.00 | 98 | 1015.2 |
| 20260831180708 | 21 | 109 | 11.3 | 16.1 | 0.00 | 0.00 | 0.00 | 98 | 1015.2 |
| 20260831180203 | 21 | 114 | 12.9 | 17.7 | 0.00 | 0.00 | 0.00 | 98 | 1014.8 |
| 20260831175702 | 21 | 100 | 14.5 | 16.1 | 0.00 | 0.00 | 0.00 | 98 | 1014.9 |
| 20260831175200 | 21 | 95 | 9.7 | 12.9 | 0.00 | 0.00 | 0.00 | 99 | 1014.8 |
| 20260831174659 | 20 | 95 | 8.0 | 14.5 | 0.00 | 0.00 | 0.00 | 99 | 1015.1 |
| 20260831174155 | 20 | 108 | 11.3 | 14.5 | 0.00 | 0.00 | 0.00 | 99 | 1015.1 |
| 20260831173653 | 20 | 103 | 11.3 | 12.9 | 0.00 | 0.00 | 0.00 | 99 | 1015.2 |
| 20260831173149 | 20 | 92 | 6.4 | 12.9 | 0.00 | 0.00 | 0.00 | 99 | 1015.4 |
| 20260831172649 | 20 | 82 | 9.7 | 11.3 | 0.00 | 0.00 | 0.00 | 99 | 1015.3 |
| 20260831172144 | 19 | 96 | 9.7 | 11.3 | 0.00 | 0.00 | 0.00 | 99 | 1015.3 |
| 20260831171639 | 19 | 111 | 8.0 | 11.3 | 0.00 | 0.00 | 0.00 | 99 | 1015.3 |
| 20260831171137 | 19 | 105 | 8.0 | 12.9 | 0.00 | 0.00 | 0.00 | 99 | 1015.5 |
| 20260831170632 | 19 | 92 | 9.7 | 12.9 | 0.00 | 0.00 | 0.00 | 99 | 1015.6 |
| 20260831170124 | 19 | 84 | 11.3 | 16.1 | 0.00 | 0.00 | 0.00 | 99 | 1015.6 |
| 20260831165619 | 19 | 100 | 9.7 | 14.5 | 0.00 | 0.00 | 0.00 | 99 | 1015.6 |
| 20260831165115 | 19 | 99 | 11.3 | 12.9 | 0.00 | 0.00 | 0.00 | 99 | 1015.4 |
| 20260831164611 | 19 | 117 | 6.4 | 12.9 | 0.00 | 0.00 | 0.00 | 99 | 1015.6 |
| 20260831164107 | 18 | 110 | 11.3 | 17.7 | 0.00 | 0.00 | 0.00 | 99 | 1015.4 |
| 20260831163602 | 18 | 120 | 12.9 | 16.1 | 0.00 | 0.00 | 0.00 | 99 | 1015.6 |
| 20260831163057 | 18 | 102 | 9.7 | 16.1 | 0.00 | 0.00 | 0.00 | 99 | 1015.7 |
| 20260831162556 | 18 | 97 | 12.9 | 16.1 | 0.00 | 0.00 | 0.00 | 99 | 1015.7 |
| 20260831162054 | 18 | 113 | 12.9 | 14.5 | 0.00 | 0.00 | 0.00 | 99 | 1015.5 |
| 20260831161550 | 18 | 92 | 11.3 | 16.1 | 0.00 | 0.00 | 0.00 | 99 | 1015.7 |
| 20260831161047 | 18 | 40 | 8.0 | 12.9 | 0.00 | 0.00 | 0.00 | 99 | 1015.7 |
| 20260831160545 | 18 | 126 | 9.7 | 16.1 | 0.00 | 0.00 | 0.00 | 99 | 1015.7 |
| 20260831160042 | 18 | 115 | 8.0 | 12.9 | 0.00 | 0.00 | 0.00 | 99 | 1015.8 |
| 20260831155541 | 18 | 83 | 12.9 | 14.5 | 0.00 | 0.00 | 0.00 | 99 | 1015.6 |
| 20260831155036 | 18 | 84 | 12.9 | 14.5 | 0.00 | 0.00 | 0.00 | 99 | 1016.0 |
| 20260831154533 | 18 | 123 | 8.0 | 11.3 | 0.00 | 0.00 | 0.00 | 99 | 1015.9 |
| 20260831154033 | 18 | 88 | 8.0 | 12.9 | 0.00 | 0.00 | 0.00 | 99 | 1016.2 |
| 20260831153532 | 18 | 91 | 9.7 | 11.3 | 0.00 | 0.00 | 0.00 | 99 | 1016.1 |
| 20260831153029 | 18 | 102 | 9.7 | 14.5 | 0.00 | 0.00 | 0.00 | 99 | 1016.3 |
| 20260831152524 | 18 | 100 | 6.4 | 12.9 | 0.00 | 0.00 | 0.00 | 99 | 1016.0 |
| 20260831152020 | 18 | 78 | 11.3 | 16.1 | 0.00 | 0.00 | 0.00 | 99 | 1016.0 |
| 20260831151519 | 18 | 108 | 9.7 | 14.5 | 0.00 | 0.00 | 0.00 | 99 | 1016.1 |
| 20260831151019 | 18 | 95 | 8.0 | 12.9 | 0.00 | 0.00 | 0.00 | 99 | 1016.1 |
| 20260831150514 | 18 | 93 | 6.4 | 12.9 | 0.00 | 0.00 | 0.00 | 99 | 1016.1 |
| 20260831150010 | 17 | 93 | 9.7 | 11.3 | 0.00 | 0.00 | 0.00 | 99 | 1016.1 |
| 20260831145504 | 18 | 109 | 8.0 | 11.3 | 0.00 | 0.00 | 0.00 | 99 | 1016.2 |
| 20260831145001 | 18 | 95 | 8.0 | 11.3 | 0.00 | 0.00 | 0.00 | 99 | 1016.3 |
| 20260831144456 | 18 | 81 | 8.0 | 11.3 | 0.00 | 0.00 | 0.00 | 99 | 1016.3 |
| 20260831143951 | 18 | 110 | 8.0 | 9.7 | 0.00 | 0.00 | 0.00 | 99 | 1016.0 |
| 20260831143446 | 18 | 101 | 11.3 | 14.5 | 0.00 | 0.00 | 0.00 | 99 | 1016.1 |
| 20260831142941 | 18 | 145 | 9.7 | 11.3 | 0.00 | 0.00 | 0.00 | 99 | 1016.2 |
| 20260831142432 | 18 | 109 | 8.0 | 12.9 | 0.00 | 0.00 | 0.00 | 99 | 1016.2 |
| 20260831141926 | 18 | 83 | 11.3 | 14.5 | 0.00 | 0.00 | 0.00 | 99 | 1016.3 |
| 20260831141420 | 18 | 96 | 6.4 | 9.7 | 0.00 | 0.00 | 0.00 | 99 | 1016.3 |
| 20260831140915 | 18 | 87 | 9.7 | 14.5 | 0.00 | 0.00 | 0.00 | 99 | 1016.5 |
| 20260831140410 | 18 | 116 | 6.4 | 11.3 | 0.00 | 0.00 | 0.00 | 99 | 1016.3 |
| 20260831135908 | 18 | 138 | 6.4 | 9.7 | 0.00 | 0.00 | 0.00 | 99 | 1016.7 |
| 20260831135408 | 18 | 124 | 11.3 | 11.3 | 0.00 | 0.00 | 0.00 | 99 | 1016.5 |
| 20260831134903 | 18 | 144 | 4.8 | 6.4 | 0.00 | 0.00 | 0.00 | 99 | 1016.3 |
| 20260831134400 | 18 | 129 | 4.8 | 6.4 | 0.00 | 0.00 | 0.00 | 99 | 1016.6 |
| 20260831133859 | 18 | 117 | 3.2 | 6.4 | 0.00 | 0.00 | 0.00 | 99 | 1016.8 |
| 20260831133354 | 18 | 136 | 3.2 | 4.8 | 0.00 | 0.00 | 0.00 | 99 | 1016.8 |
| 20260831132849 | 18 | 128 | 0.0 | 0.0 | 0.00 | 0.00 | 0.00 | 99 | 1016.9 |
| 20260831132344 | 18 | 157 | 1.6 | 6.4 | 0.00 | 0.00 | 0.00 | 99 | 1016.9 |
| 20260831131844 | 18 | 148 | 8.0 | 9.7 | 0.00 | 0.00 | 0.00 | 99 | 1016.7 |
| 20260831131340 | 18 | 140 | 8.0 | 9.7 | 0.00 | 0.00 | 0.00 | 99 | 1016.5 |
| 20260831130835 | 18 | 123 | 6.4 | 6.4 | 0.00 | 0.00 | 0.00 | 99 | 1016.6 |
| 20260831130331 | 18 | 117 | 6.4 | 9.7 | 0.00 | 0.00 | 0.00 | 99 | 1016.1 |
| 20260831125830 | 18 | 99 | 4.8 | 6.4 | 0.00 | 0.00 | 0.00 | 99 | 1016.0 |
| 20260831125325 | 18 | 124 | 8.0 | 9.7 | 0.00 | 0.00 | 0.00 | 99 | 1016.0 |
| 20260831124825 | 18 | 101 | 4.8 | 11.3 | 0.00 | 0.00 | 0.00 | 99 | 1016.0 |
| 20260831124321 | 18 | 132 | 3.2 | 9.7 | 0.00 | 0.00 | 0.00 | 99 | 1016.1 |
| 20260831123821 | 18 | 110 | 9.7 | 16.1 | 0.00 | 0.00 | 0.00 | 99 | 1015.8 |
| 20260831123320 | 18 | 122 | 6.4 | 9.7 | 0.00 | 0.00 | 0.00 | 99 | 1015.8 |
| 20260831122815 | 18 | 107 | 9.7 | 11.3 | 0.00 | 0.00 | 0.00 | 99 | 1015.8 |
| 20260831122310 | 18 | 106 | 12.9 | 16.1 | 0.00 | 0.00 | 0.00 | 99 | 1015.5 |
| 20260831121810 | 18 | 110 | 9.7 | 14.5 | 0.00 | 0.00 | 0.00 | 99 | 1015.7 |
| 20260831121307 | 18 | 124 | 8.0 | 12.9 | 0.00 | 0.00 | 0.00 | 99 | 1015.8 |
| 20260831120802 | 18 | 100 | 8.0 | 16.1 | 0.00 | 0.00 | 0.00 | 99 | 1015.5 |
| 20260831120256 | 18 | 90 | 9.7 | 17.7 | 0.00 | 0.00 | 0.00 | 99 | 1015.6 |
| 20260831115752 | 18 | 102 | 9.7 | 17.7 | 0.00 | 0.00 | 0.00 | 99 | 1015.4 |
| 20260831115248 | 18 | 97 | 14.5 | 20.9 | 0.00 | 0.00 | 0.00 | 99 | 1015.5 |
| 20260831114747 | 18 | 125 | 9.7 | 16.1 | 0.00 | 0.00 | 0.00 | 99 | 1015.4 |
| 20260831114247 | 18 | 80 | 9.7 | 17.7 | 0.00 | 0.00 | 0.00 | 99 | 1015.3 |
| 20260831113742 | 18 | 87 | 9.7 | 14.5 | 0.00 | 0.00 | 0.00 | 99 | 1015.3 |
| 20260831113236 | 18 | 78 | 9.7 | 14.5 | 0.00 | 0.00 | 0.00 | 99 | 1015.3 |
| 20260831112736 | 18 | 89 | 11.3 | 17.7 | 0.00 | 0.00 | 0.00 | 99 | 1015.2 |
| 20260831112231 | 18 | 80 | 9.7 | 12.9 | 0.00 | 0.00 | 0.00 | 99 | 1015.4 |
| 20260831111727 | 18 | 101 | 12.9 | 16.1 | 0.00 | 0.00 | 0.00 | 99 | 1015.4 |
| 20260831111223 | 18 | 113 | 8.0 | 12.9 | 0.00 | 0.00 | 0.00 | 99 | 1015.5 |
| 20260831110718 | 18 | 97 | 8.0 | 12.9 | 0.00 | 0.00 | 0.00 | 99 | 1015.6 |